Location: Ch?enovice
(49.7164°N, 15.2160°E)
Time: 12:54:17
(UTC+00:00)

USA 267 - Pass Details

Date: 14 November 2025
Orbit: 1100 x 1108 km, 123.0° (Epoch: 21 November)

Event Time Altitude Azimuth Distance (km) Brightness Sun altitude
Rises 02:19:06 0° 57° (ENE) 3,924 7.0 -36.9°
Reaches altitude 10° 02:21:49 10° 65° (ENE) 2,962 6.3 -36.5°
Maximum altitude 02:27:50 38° 133° (SE) 1,606 4.2 -35.6°
Enters shadow 02:28:25 38° 144° (SE) 1,623 4.2 -35.5°
